DW9936 Weather Reports


time (UTC)temp
C
wind
direction
speed
KPH
gust
KPH
rain 1hr
cm
rain 24hr
cm
rain mn
cm
humidity
%
barometer
mb
20260902210024 19 346 0.0 3.2 0.00 0.00 0.00 59 1019.4
20260902204525 19 355 0.0 1.6 0.00 0.00 0.00 58 1019.3
20260902203025 20 355 0.0 0.0 0.00 0.00 0.00 57 1019.2
20260902201522 20 355 0.0 1.6 0.00 0.00 0.00 55 1019.1
20260902200025 21 355 0.0 4.8 0.00 0.00 0.00 53 1019.1
20260902194536 21 308 0.0 1.6 0.00 0.00 0.00 52 1019.2
20260902193022 22 307 0.0 3.2 0.00 0.00 0.00 50 1019.1
20260902191521 22 304 0.0 1.6 0.00 0.00 0.00 50 1019.0
20260902190020 22 295 0.0 1.6 0.00 0.00 0.00 49 1018.9
20260902184526 23 295 0.0 1.6 0.00 0.00 0.00 47 1018.6
20260902183020 23 327 0.0 4.8 0.00 0.00 0.00 47 1018.4
20260902181518 23 333 0.0 3.2 0.00 0.00 0.00 46 1018.2
20260902180020 23 325 0.0 4.8 0.00 0.00 0.00 44 1017.9
20260902174518 24 355 0.0 3.2 0.00 0.00 0.00 43 1017.8
20260902173025 25 355 0.0 3.2 0.00 0.00 0.00 40 1017.6
20260902171516 25 35 0.0 3.2 0.00 0.00 0.00 38 1017.5
20260902170019 26 97 0.0 0.0 0.00 0.00 0.00 42 1017.4
20260902164515 26 98 0.0 0.0 0.00 0.00 0.00 41 1017.4
20260902163014 27 98 0.0 1.6 0.00 0.00 0.00 40 1017.4
20260902161514 27 103 0.0 3.2 0.00 0.00 0.00 40 1017.4
20260902160015 27 124 0.0 1.6 0.00 0.00 0.00 39 1017.5
20260902154512 27 331 0.0 1.6 0.00 0.00 0.00 38 1017.5
20260902153012 27 312 0.0 3.2 0.00 0.00 0.00 39 1017.6
20260902151515 27 102 0.0 1.6 0.00 0.00 0.00 41 1017.6
20260902150010 27 103 0.0 1.6 0.00 0.00 0.00 39 1017.8
20260902144509 27 105 0.0 3.2 0.00 0.00 0.00 38 1017.7
20260902143010 28 115 0.0 3.2 0.00 0.00 0.00 37 1017.8
20260902141507 28 87 0.0 3.2 0.00 0.00 0.00 37 1017.9
20260902140012 28 92 0.0 3.2 0.00 0.00 0.00 38 1017.9
20260902134510 28 246 0.0 4.8 0.00 0.00 0.00 37 1017.9
20260902133005 28 273 0.0 3.2 0.00 0.00 0.00 36 1018.2
20260902131502 28 272 0.0 4.8 0.00 0.00 0.00 38 1018.3
20260902130001 28 61 0.0 9.7 0.00 0.00 0.00 37 1018.5
20260902124603 28 267 0.0 4.8 0.00 0.00 0.00 38 1018.6
20260902123100 28 113 1.6 6.4 0.00 0.00 0.00 38 1018.8
20260902121557 29 204 0.0 3.2 0.00 0.00 0.00 38 1019.0
20260902120053 28 220 1.6 8.0 0.00 0.00 0.00 39 1019.1
20260902114552 28 76 0.0 3.2 0.00 0.00 0.00 40 1019.3
20260902113051 28 62 0.0 4.8 0.00 0.00 0.00 40 1019.5
20260902111547 28 111 0.0 8.0 0.00 0.00 0.00 40 1019.6
20260902110043 27 247 0.0 8.0 0.00 0.00 0.00 42 1019.8
20260902104604 27 72 1.6 8.0 0.00 0.00 0.00 42 1020.0
20260902103040 27 112 0.0 6.4 0.00 0.00 0.00 42 1020.0
20260902101537 27 110 0.0 4.8 0.00 0.00 0.00 41 1020.3
20260902100038 27 146 0.0 3.2 0.00 0.00 0.00 40 1020.5
20260902094531 27 181 0.0 4.8 0.00 0.00 0.00 44 1020.6
20260902093030 26 185 0.0 6.4 0.00 0.00 0.00 47 1020.7
20260902091522 25 143 0.0 4.8 0.00 0.00 0.00 47 1020.8
20260902090020 25 111 0.0 9.7 0.00 0.00 0.00 49 1021.0
20260902084516 24 156 0.0 6.4 0.00 0.00 0.00 52 1021.2
20260902083013 23 120 0.0 4.8 0.00 0.00 0.00 55 1021.2
20260902081507 22 159 0.0 4.8 0.00 0.00 0.00 57 1021.2
20260902080013 22 317 0.0 3.2 0.00 0.00 0.00 58 1021.3
20260902074502 21 209 0.0 3.2 0.00 0.00 0.00 61 1021.3
20260902073057 20 206 0.0 0.0 0.00 0.00 0.00 68 1021.3
20260902071601 18 209 0.0 0.0 0.00 0.00 0.00 70 1021.4
20260902070049 17 209 0.0 0.0 0.00 0.00 0.00 71 1021.3
20260902064549 17 209 0.0 0.0 0.00 0.00 0.00 71 1021.2
20260902063108 17 209 0.0 0.0 0.00 0.00 0.00 74 1021.2
20260902061552 16 209 0.0 0.0 0.00 0.00 0.00 76 1021.1
20260902060104 16 205 0.0 0.0 0.00 0.00 0.00 81 1021.1
20260902054545 15 204 0.0 0.0 0.00 0.00 0.00 82 1021.0
20260902053044 15 204 0.0 0.0 0.00 0.00 0.00 83 1021.0
20260902051541 14 204 0.0 0.0 0.00 0.00 0.00 82 1020.9
20260902050038 15 204 0.0 0.0 0.00 0.00 0.00 82 1020.9
20260902044543 15 204 0.0 0.0 0.00 0.00 0.00 81 1020.9
20260902043036 15 204 0.0 0.0 0.00 0.00 0.00 80 1020.8
20260902041538 15 204 0.0 0.0 0.00 0.00 0.00 79 1020.8
20260902040035 15 204 0.0 0.0 0.00 0.00 0.00 79 1020.7
20260902034532 15 204 0.0 0.0 0.00 0.00 0.00 79 1020.6
20260902033031 15 204 0.0 0.0 0.00 0.00 0.00 78 1020.7
20260902031538 15 204 0.0 0.0 0.00 0.00 0.00 77 1020.7
20260902030028 15 204 0.0 0.0 0.00 0.00 0.00 75 1020.6
20260902024527 15 204 0.0 0.0 0.00 0.00 0.00 75 1020.7
20260902023026 16 204 0.0 0.0 0.00 0.00 0.00 73 1020.8
20260902021536 16 204 0.0 3.2 0.00 0.00 0.00 72 1020.7
20260902020032 15 132 0.0 1.6 0.00 0.00 0.00 75 1020.7
20260902014543 15 132 0.0 0.0 0.00 0.00 0.00 74 1020.7
20260902013020 16 133 0.0 0.0 0.00 0.00 0.00 73 1020.9
20260902011517 16 133 0.0 0.0 0.00 0.00 0.00 72 1020.9
20260902010020 16 133 0.0 0.0 0.00 0.00 0.00 70 1020.9
20260902004518 16 133 0.0 0.0 0.00 0.00 0.00 70 1020.9
20260902003014 16 133 0.0 0.0 0.00 0.00 0.00 69 1020.9
20260902001512 17 133 0.0 0.0 0.00 0.00 0.00 69 1020.9
20260902000011 17 133 0.0 0.0 0.00 0.00 0.00 69 1020.9
20260901234522 17 133 0.0 0.0 0.00 0.00 0.00 69 1021.0
20260901233008 17 133 0.0 0.0 0.00 0.00 0.00 68 1021.0
20260901231506 17 133 0.0 0.0 0.00 0.00 0.00 67 1021.1
20260901230010 17 133 0.0 0.0 0.00 0.00 0.00 67 1021.2
20260901224502 17 133 0.0 0.0 0.00 0.00 0.00 66 1021.2
20260901223002 17 133 0.0 0.0 0.00 0.00 0.00 64 1021.1
20260901221630 17 133 0.0 0.0 0.00 0.00 0.00 64 1021.1
20260901220100 17 133 0.0 1.6 0.00 0.00 0.00 64 1021.1
20260901214557 17 133 0.0 0.0 0.00 0.00 0.00 64 1020.9
20260901213104 17 133 0.0 0.0 0.00 0.00 0.00 65 1020.9
20260901211555 17 133 0.0 3.2 0.00 0.00 0.00 65 1020.9